EW1525 Weather Reports


time (UTC)temp
F
wind
direction
speed
knots
gust
knots
rain 1hr
in
rain 24hr
in
rain mn
in
humidity
%
barometer
mb
20260503055003 45 304 1.7 5.2 0.00 0.00 0.00 2 1008.7
20260503054503 45 310 0.9 6.1 0.00 0.00 0.00 2 1008.7
20260503053504 45 313 0.9 5.2 0.00 0.00 0.00 2 1008.7
20260503053003 45 305 1.7 4.3 0.00 0.00 0.00 2 1008.9
20260503052503 45 305 0.9 4.3 0.00 0.00 0.00 2 1008.9
20260503051503 45 325 0.9 1.7 0.00 0.00 0.00 2 1008.7
20260503050503 45 0 0.0 1.7 0.00 0.00 0.00 2 1008.8
20260503050004 45 0 0.0 3.5 0.00 0.00 0.00 2 1008.9
20260503045503 45 302 0.9 4.3 0.00 0.00 0.00 2 1009.0
20260503045003 45 304 0.9 4.3 0.00 0.00 0.00 2 1009.2
20260503044504 45 307 0.9 2.6 0.00 0.00 0.00 2 1009.3
20260503043503 45 0 0.0 1.7 0.00 0.00 0.00 2 1009.3
20260503043004 45 0 0.0 1.7 0.00 0.00 0.00 2 1009.3
20260503042503 45 0 0.0 1.7 0.00 0.00 0.00 2 1009.3
20260503041504 45 0 0.0 0.0 0.00 0.00 0.00 2 1009.5
20260503041004 45 0 0.0 0.0 0.00 0.00 0.00 2 1009.6
20260503040004 45 0 0.0 0.0 0.00 0.00 0.00 2 1009.9
20260503035503 45 0 0.0 0.0 0.00 0.00 0.00 2 1009.8
20260503034003 45 0 0.0 0.0 0.00 0.00 0.00 2 1009.7
20260503033503 45 0 0.0 0.0 0.00 0.00 0.00 2 1009.9
20260503033004 45 0 0.0 0.0 0.00 0.00 0.00 2 1009.6
20260503032504 45 0 0.0 0.0 0.00 0.00 0.00 2 1009.6
20260503032004 45 0 0.0 0.0 0.00 0.00 0.00 2 1009.8
20260503031503 45 0 0.0 0.0 0.00 0.00 0.00 2 1009.7
20260503031003 45 0 0.0 0.0 0.00 0.00 0.00 2 1009.7
20260503030003 45 0 0.0 0.0 0.00 0.00 0.00 2 1009.7
20260503025503 45 0 0.0 0.0 0.00 0.00 0.00 2 1009.7
20260503025004 45 0 0.0 0.0 0.00 0.00 0.00 2 1009.7
20260503024503 45 0 0.0 0.0 0.00 0.00 0.00 2 1009.8
20260503024003 45 0 0.0 0.0 0.00 0.00 0.00 2 1009.8
20260503023503 45 0 0.0 0.0 0.00 0.00 0.00 2 1010.0
20260503023003 45 0 0.0 0.0 0.00 0.00 0.00 2 1009.9
20260503022503 45 0 0.0 0.0 0.00 0.00 0.00 2 1009.9
20260503022003 45 0 0.0 0.0 0.00 0.00 0.00 2 1010.0
20260503021503 45 0 0.0 0.0 0.00 0.00 0.00 2 1009.9
20260503021003 45 0 0.0 0.0 0.00 0.00 0.00 2 1009.9
20260503020503 45 0 0.0 0.0 0.00 0.00 0.00 2 1010.0
20260503020003 45 0 0.0 0.0 0.00 0.00 0.00 2 1010.1
20260503015504 45 0 0.0 0.0 0.00 0.00 0.00 2 1010.1
20260503014503 45 0 0.0 0.0 0.00 0.00 0.00 2 1010.2
20260503014003 45 0 0.0 0.0 0.00 0.00 0.00 2 1010.2
20260503013503 45 0 0.0 0.0 0.00 0.00 0.00 2 1010.3
20260503013003 45 0 0.0 0.0 0.00 0.00 0.00 2 1010.3
20260503012503 45 0 0.0 0.0 0.00 0.00 0.00 2 1010.3
20260503012003 45 0 0.0 0.0 0.00 0.00 0.00 2 1010.2
20260503011503 45 0 0.0 0.0 0.00 0.00 0.00 2 1010.3
20260503010504 45 0 0.0 0.0 0.00 0.00 0.00 2 1010.1
20260503010003 45 0 0.0 0.0 0.00 0.00 0.00 2 1010.1
20260503005503 45 0 0.0 0.0 0.00 0.00 0.00 2 1010.1
20260503005003 45 0 0.0 0.0 0.00 0.00 0.00 2 1010.1
20260503004503 45 0 0.0 0.0 0.00 0.00 0.00 2 1010.1
20260503004004 45 0 0.0 0.0 0.00 0.00 0.00 2 1010.2
20260503003503 45 0 0.0 0.0 0.00 0.00 0.00 2 1010.2
20260503003003 45 0 0.0 0.0 0.00 0.00 0.00 2 1010.2
20260503002503 45 0 0.0 0.0 0.00 0.00 0.00 2 1010.2
20260503002004 45 0 0.0 0.0 0.00 0.00 0.00 2 1010.1
20260503001503 45 0 0.0 0.0 0.00 0.00 0.00 2 1010.0
20260503001003 45 0 0.0 0.0 0.00 0.00 0.00 2 1010.1
20260503000503 45 0 0.0 0.0 0.00 0.00 0.00 2 1010.1
20260503000003 45 0 0.0 0.0 0.00 0.00 0.00 2 1010.1
20260502235503 45 0 0.0 0.0 0.00 0.00 0.00 2 1010.1
20260502235003 45 0 0.0 0.0 0.00 0.00 0.00 2 1010.1
20260502234503 45 0 0.0 0.0 0.00 0.00 0.00 2 1010.1
20260502234003 45 0 0.0 0.0 0.00 0.00 0.00 2 1010.1
20260502233503 45 0 0.0 0.0 0.00 0.00 0.00 2 1010.1
20260502232503 45 0 0.0 0.9 0.00 0.00 0.00 2 1010.1
20260502231503 45 0 0.0 0.9 0.00 0.00 0.00 2 1010.1
20260502230003 45 0 0.0 1.7 0.00 0.00 0.00 2 1010.2
20260502225503 45 0 0.0 1.7 0.00 0.00 0.00 2 1010.2
20260502224503 45 0 0.0 2.6 0.00 0.00 0.00 2 1010.3
20260502224004 45 0 0.0 1.7 0.00 0.00 0.00 2 1010.2
20260502223503 45 0 0.0 1.7 0.00 0.00 0.00 2 1010.1
20260502223003 45 0 0.0 1.7 0.00 0.00 0.00 2 1010.1
20260502222503 45 0 0.0 2.6 0.00 0.00 0.00 2 1010.0
20260502222003 45 0 0.0 2.6 0.00 0.00 0.00 2 1010.1
20260502221503 45 0 0.0 0.0 0.00 0.00 0.00 2 1010.0
20260502221003 45 0 0.0 0.0 0.00 0.00 0.00 2 1010.0
20260502220503 45 0 0.0 0.0 0.00 0.00 0.00 2 1009.9
20260502215503 45 0 0.0 0.0 0.00 0.00 0.00 2 1009.9
20260502215003 45 0 0.0 0.0 0.00 0.00 0.00 2 1009.9
20260502214004 45 0 0.0 2.6 0.00 0.00 0.00 2 1009.9
20260502213503 45 0 0.0 2.6 0.00 0.00 0.00 2 1009.8
20260502213003 45 0 0.0 1.7 0.00 0.00 0.00 2 1009.8
20260502212003 45 0 0.0 4.3 0.00 0.00 0.00 2 1009.7
20260502211003 45 0 0.0 1.7 0.00 0.00 0.00 2 1009.9
20260502210504 45 167 0.9 3.5 0.00 0.00 0.00 2 1009.9
20260502210003 45 177 0.9 3.5 0.00 0.00 0.00 2 1010.1
20260502205004 45 176 0.9 3.5 0.00 0.00 0.00 2 1010.1
20260502204504 45 182 0.9 4.3 0.00 0.00 0.00 2 1010.1
20260502204003 45 199 0.9 4.3 0.00 0.00 0.00 2 1010.1
20260502203503 45 200 0.9 2.6 0.00 0.00 0.00 2 1010.0
20260502203003 45 0 0.0 2.6 0.00 0.00 0.00 2 1010.1
20260502202504 45 176 0.9 4.3 0.00 0.00 0.00 2 1010.2
20260502202003 45 178 0.9 6.1 0.00 0.00 0.00 2 1010.1
20260502201503 45 187 0.9 6.1 0.00 0.00 0.00 2 1010.2
20260502201003 45 198 0.9 5.2 0.00 0.00 0.00 2 1010.4
20260502200504 45 197 0.9 3.5 0.00 0.00 0.00 2 1010.4
20260502195503 45 0 0.0 2.6 0.00 0.00 0.00 2 1010.5
20260502195003 45 175 0.9 3.5 0.00 0.00 0.00 2 1010.5
20260502194504 45 183 1.7 5.2 0.00 0.00 0.00 2 1010.5
20260502194004 45 183 1.7 6.1 0.00 0.00 0.00 2 1010.5
20260502193503 45 178 0.9 6.1 0.00 0.00 0.00 2 1010.6
20260502193003 45 0 0.0 2.6 0.00 0.00 0.00 2 1010.6
20260502192503 45 215 0.9 2.6 0.00 0.00 0.00 2 1010.8
20260502192004 45 216 0.9 2.6 0.00 0.00 0.00 2 1010.9
20260502191503 45 181 0.9 3.5 0.00 0.00 0.00 2 1010.9
20260502191003 45 0 0.0 3.5 0.00 0.00 0.00 2 1011.0
20260502190504 45 0 0.0 3.5 0.00 0.00 0.00 2 1011.0
20260502190004 45 173 0.9 3.5 0.00 0.00 0.00 2 1011.0
20260502185503 45 176 0.9 2.6 0.00 0.00 0.00 2 1011.0
20260502184504 45 176 0.9 4.3 0.00 0.00 0.00 2 1011.2
20260502184004 45 178 0.9 3.5 0.00 0.00 0.00 2 1011.2
20260502183504 45 186 0.9 4.3 0.00 0.00 0.00 2 1011.2
20260502183003 45 178 1.7 5.2 0.00 0.00 0.00 2 1011.1
20260502182004 45 186 1.7 7.8 0.00 0.00 0.00 2 1011.2
20260502181503 45 193 1.7 5.2 0.00 0.00 0.00 2 1011.1
20260502170503 45 217 1.7 6.1 0.00 0.00 0.00 2 1011.4
20260502164003 45 159 0.9 4.3 0.00 0.00 0.00 2 1011.0
20260502163504 45 157 0.9 4.3 0.00 0.00 0.00 2 1010.9
20260502163003 45 161 0.9 3.5 0.00 0.00 0.00 2 1011.0
20260502162503 45 190 1.7 6.1 0.00 0.00 0.00 2 1011.0
20260502161503 45 160 1.7 5.2 0.00 0.00 0.00 2 1011.2
20260502161003 45 161 1.7 4.3 0.00 0.00 0.00 2 1011.2
20260502160503 45 173 1.7 3.5 0.00 0.00 0.00 2 1011.3
20260502151503 45 173 0.9 4.3 0.00 0.00 0.00 2 1011.6
20260502151003 45 160 0.9 4.3 0.00 0.00 0.00 2 1011.6
20260502150503 45 166 0.9 3.5 0.00 0.00 0.00 2 1011.6
20260502130503 45 200 0.9 3.5 0.00 0.00 0.00 2 1012.4
20260502123003 45 189 1.7 6.1 0.00 0.00 0.00 2 1012.1
20260502122504 45 186 1.7 5.2 0.00 0.00 0.00 2 1012.3
20260502122004 45 183 1.7 7.0 0.00 0.00 0.00 2 1012.4
20260502121503 45 188 1.7 7.0 0.00 0.00 0.00 2 1012.3
20260502121003 45 190 0.9 4.3 0.00 0.00 0.00 2 1012.2
20260502120503 45 0 0.0 4.3 0.00 0.00 0.00 2 1012.1
20260502115503 45 189 0.9 5.2 0.00 0.00 0.00 2 1012.2
20260502115003 45 0 0.0 3.5 0.00 0.00 0.00 2 1012.1
20260502114004 45 173 0.9 2.6 0.00 0.00 0.00 2 1011.9
20260502112504 45 0 0.0 0.0 0.00 0.00 0.00 2 1011.9
20260502112003 45 0 0.0 0.9 0.00 0.00 0.00 2 1011.9
20260502111503 45 0 0.0 0.9 0.00 0.00 0.00 2 1011.9
20260502111003 45 0 0.0 0.9 0.00 0.00 0.00 2 1012.0
20260502110504 45 0 0.0 0.9 0.00 0.00 0.00 2 1012.1
20260502110003 45 0 0.0 0.9 0.00 0.00 0.00 2 1012.0
20260502105503 45 0 0.0 0.9 0.00 0.00 0.00 2 1011.9
20260502105003 45 0 0.0 0.9 0.00 0.00 0.00 2 1012.1
20260502104503 45 0 0.0 0.0 0.00 0.00 0.00 2 1011.7
20260502104004 45 0 0.0 0.0 0.00 0.00 0.00 2 1011.6
20260502103503 45 0 0.0 0.0 0.00 0.00 0.00 2 1011.7
20260502103003 45 0 0.0 0.0 0.00 0.00 0.00 2 1011.6
20260502102504 45 0 0.0 0.0 0.00 0.00 0.00 2 1011.6
20260502102004 45 0 0.0 0.0 0.00 0.00 0.00 2 1011.5
20260502101504 45 0 0.0 0.0 0.00 0.00 0.00 2 1011.7
20260502101003 45 0 0.0 0.0 0.00 0.00 0.00 2 1011.8
20260502091504 45 0 0.0 0.0 0.00 0.00 0.00 2 1011.6
20260502091004 45 0 0.0 0.0 0.00 0.00 0.00 2 1011.4
20260502090503 45 0 0.0 0.0 0.00 0.00 0.00 2 1011.1
20260502071503 45 0 0.0 0.0 0.00 0.00 0.00 2 1011.3
20260502071003 45 0 0.0 0.0 0.00 0.00 0.00 2 1011.4
20260502070503 45 0 0.0 0.0 0.00 0.00 0.00 2 1011.4
20260502070004 45 0 0.0 0.0 0.00 0.00 0.00 2 1011.4
20260502065503 45 0 0.0 0.0 0.00 0.00 0.00 2 1011.4
20260502065003 45 0 0.0 0.0 0.00 0.00 0.00 2 1011.4
20260502064503 45 0 0.0 0.0 0.00 0.00 0.00 2 1011.4
20260502064004 45 0 0.0 0.0 0.00 0.00 0.00 2 1011.5
20260502063003 45 0 0.0 0.0 0.00 0.00 0.00 2 1011.5
20260502062504 45 0 0.0 0.0 0.00 0.00 0.00 2 1011.6
20260502061503 45 0 0.0 0.0 0.00 0.00 0.00 2 1011.5
20260502061004 45 0 0.0 0.0 0.00 0.00 0.00 2 1011.5
20260502060003 45 0 0.0 0.0 0.00 0.00 0.00 2 1011.7